Regional Weather Roundup
Issued by NWS

Home | Current Version | Previous Version | Graphics & Text | Print | Product List | Glossary On
Versions: 1 2 3 4 5 6 7 8 9 10 11 12 13 14 15 16 17 18 19 20 21 22 23 24 25 26 27 28 29 30 31 32 33 34 35 36 37 38 39 40 41 42 43 44 45 46 47 48 49 50
000
ASUS43 KLSX 200907
RWRMO

WEATHER SUMMARY FOR MISSOURI
NATIONAL WEATHER SERVICE SPRINGFIELD MO
300 AM CST MON NOV 20 2017

NOTE: "FAIR" INDICATES FEW OR NO CLOUDS BELOW 12,000 FEET WITH NO
       SIGNIFICANT WEATHER AND/OR OBSTRUCTIONS TO VISIBILITY.
       CURRENT SKY AND/OR WEATHER CONDITIONS ARE NOT AVAILABLE FOR
       CHILLICOTHE AND FARMINGTON.

MOZ001>031-035>038-043-044-053-054-201000-
...NORTHERN AND WESTERN MISSOURI...

CITY           SKY/WX    TMP DP  RH WIND       PRES   REMARKS
KANSAS CTY INT CLOUDY    44  28  53 S17G24    29.98F
KANSAS C DTWN  CLOUDY    46  28  49 S13       30.00F
LEE`S SUMMIT   CLEAR     42  30  62 SW15      30.02F
ST JOSEPH      CLOUDY    44  27  51 S14       29.95F
CHILLICOTHE      N/A     41  31  67 S12       29.99F
KIRKSVILLE     CLOUDY    40  30  67 S13       29.99F

$$
MOZ066>068-077>081-088>096-101>105-201000-
...SOUTHWEST MISSOURI...

CITY           SKY/WX    TMP DP  RH WIND       PRES   REMARKS
SPRINGFIELD    CLEAR     36  28  73 S8        30.13S WCI  30
JOPLIN         CLEAR     45  28  51 S14       30.12F
BRANSON        CLEAR     37  25  60 CALM      30.17R

$$
MOZ032>034-039>042-045>050-055>058-069>072-201000-
...CENTRAL MISSOURI...

CITY           SKY/WX    TMP DP  RH WIND       PRES   REMARKS
COLUMBIA       CLOUDY    34  27  75 S9        30.08F WCI  27
JEFFERSON CITY CLOUDY    38  26  62 E6        30.11F
ROLLA          CLOUDY    37  25  61 S12       30.13F WCI  29
SEDALIA        CLEAR     42  30  62 S13       30.07F
WHITEMAN AFB   CLEAR     39  29  65 SW14      30.01F
WARRENSBURG    CLEAR     37  30  75 S10       30.05S

$$
MOZ051-052-059>065-201000-
...EAST CENTRAL MISSOURI...

CITY           SKY/WX    TMP DP  RH WIND       PRES   REMARKS
ST LOUIS INTL  CLOUDY    38  22  52 S12       30.13F
SPIRIT OF STL  CLOUDY    26  24  92 CALM      30.13F
ST CHARLES     CLOUDY    26  24  92 E6        30.13F WCI  19

$$
MOZ072>076-082>087-097>100-106>115-201000-
...SOUTH CENTRAL AND SOUTHEAST MISSOURI...

CITY           SKY/WX    TMP DP  RH WIND       PRES   REMARKS
CAPE GIRARDEAU CLOUDY    26  23  88 CALM      30.22F
FARMINGTON     CLOUDY    29  20  69 S5        30.18F WCI  24
POPLAR BLUFF   CLOUDY    27  24  89 CALM      30.23S
WEST PLAINS    CLOUDY    33  18  53 S3        30.19S

$$



USA.gov is the U.S. government's official web portal to all federal, state and local government web resources and services.